Miscellaneous Local Product
Issued by NWS North Platte, NE

Home | Current Version | Previous Version | Text Only | Print | Product List | Glossary On
Versions: 1 2 3 4 5 6 7 8 9 10 11 12 13 14 15 16 17 18 19 20 21 22 23 24 25 26 27 28 29 30 31 32 33 34 35 36 37 38 39 40 41 42 43 44 45 46 47 48 49 50
001
AXUS43 KLBF 072310
MISLBF


WESTERN AND NORTH CENTRAL NEBRASKA HOURLY WEATHER ROUNDUP
NATIONAL WEATHER SERVICE NORTH PLATTE NE
500 PM CST WED DEC 07 2016

NOTE: "FAIR" INDICATES FEW OR NO CLOUDS BELOW 12,000 FEET WITH NO
SIGNIFICANT WEATHER AND/OR OBSTRUCTIONS TO VISIBILITY.

NOTE: STATIONS NOT REPORTING VARIABLES SUCH AS SKY/WEATHER OR
PRESSURE ARE PROVIDED BY RAWS AND APRS NETWORKS AND ARE NOT UNDER
NATIONAL WEATHER SERVICE QUALITY CONTROL.

...OBSERVATIONS IN AND NEAR THE EASTERN PANHANDLE OF NEBRASKA...

CITY           SKY/WX    TMP DP  RH WIND       PRES   REMARKS
PINE RIDGE     CLEAR      8   0  69 W6        30.37R WCI  -2
CHADRON        CLEAR     11  -5  48 NW21G29   30.40R WCI  -8
ALLIANCE       CLEAR     11  -1  58 NW15      30.32R WCI  -5
SIDNEY         CLEAR     10   0  63 N14       30.31R WCI  -6
CRESCENT LAKE    N/A     11  -1  58 N9G18       N/A  WCI  -2
$$

...OBSERVATIONS IN NORTHERN NEBRASKA AND FAR SOUTHERN SOUTH DAKOTA...

CITY           SKY/WX    TMP DP  RH WIND       PRES   REMARKS
WINNER         FAIR      13   1  59 NW24G32   30.39R WCI  -7
VALENTINE      CLEAR     13  -1  54 NW23G31   30.37R WCI  -6
THEDFORD       CLEAR     17   2  53 NW16      30.36R WCI   1
AINSWORTH      CLEAR     14   3  61 NW18G24   30.37R WCI  -3
O`NEILL        CLEAR     16   3  56 NW16G22   30.36R WCI   1
ORD            CLEAR     18   0  45 NW13      30.36R WCI   5
BROKEN BOW     CLEAR     19   1  45 NW16      30.35R WCI   4
VALENTINE NWR    N/A     14  -1  50 NW18G26     N/A  WCI  -3
BUTTE            N/A     13   4  65 W23G35      N/A  WCI  -6
HALSEY           N/A     18  -1  42 NW10G20     N/A  WCI   6
CHAMBERS         N/A     15  -1  48 N3          N/A
EWING            N/A     16   5  60 NW9         N/A  WCI   5
$$

...OBSERVATIONS IN SOUTHWEST NEBRASKA AND FAR NORTHEAST COLORADO...

CITY           SKY/WX    TMP DP  RH WIND       PRES   REMARKS
WRAY           MOCLDY    12   7  79 NW8       30.36R WCI   1
HOLYOKE        FAIR      18   9  68 NW12      30.35R WCI   5
IMPERIAL       MOCLDY    14   7  73 N14       30.36R WCI  -1
OGALLALA       CLEAR     16   6  64 NW9       30.36R WCI   5
NORTH PLATTE   PTCLDY    18   5  57 NW10      30.36R WCI   6
MCCOOK         CLOUDY    18  11  74 NW8       30.39R WCI   8
LEXINGTON      CLOUDY    21   3  45 NW16      30.37R WCI   7
STAPLETON        N/A     15   1  53 CALM        N/A
GOTHENBURG       N/A     18   1  48 NW8         N/A  WCI   8
CALLAWAY         N/A     17   3  55 NW14        N/A  WCI   3
$$

...OBSERVATIONS IN CENTRAL LINCOLN COUNTY AREA...

CITY           SKY/WX    TMP DP  RH WIND       PRES   REMARKS
N.P. AIRPORT   PTCLDY    18   5  57 NW10      30.36R WCI   6
N.P. DOWNTOWN    N/A     17   7  64 NW6         N/A  WCI   9
N.P. SOUTHEAST   N/A     17   6  63 MISG        N/A
N.P. HILLCREST   N/A     17   7  63 NW8         N/A  WCI   7
$$

...SOME OBSERVATIONS FROM AROUND THE REGION...

CITY           SKY/WX    TMP DP  RH WIND       PRES   REMARKS
LARAMIE        CLEAR      2  -6  69 N8        30.11R WCI -12
CHEYENNE       CLEAR      4  -5  66 N10       30.18R WCI -11
DENVER         CLOUDY     9   2  73 N9        30.25R WCI  -4
AKRON          PTCLDY     4   0  83 NW9       30.29R WCI -10
SCOTTSBLUFF    CLEAR     11  -2  56 NW12      30.36R WCI  -3
RAPID CITY     MOCLDY     9  -4  55 N23G30    30.36R WCI -11
BISMARCK       CLOUDY     4  -2  76 W25G36    30.36R WCI -19
PIERRE         MOCLDY    12   2  64 NW28G41   30.38R WCI  -9
SIOUX FALLS    PTCLDY    15   5  64 NW26G35   30.26R WCI  -4
OMAHA          PTCLDY    23   6  48 W12       30.35R WCI  12
GRAND ISLAND   CLEAR     21   4  47 NW15      30.37R WCI   8
KANSAS CITY    MOCLDY    26  12  55 NW9       30.34R WCI  17
WICHITA        CLOUDY    28  21  75 N17       30.36R WCI  16
OKLAHOMA CITY  CLOUDY    35  28  75 N15       30.25R WCI  25
DALLAS         CLOUDY    50  38  63 N12       30.12R
AMARILLO       CLOUDY    30  21  69 N17G25    30.19R WCI  18
DODGE CITY     CLOUDY    22  17  81 N15       30.35R WCI   9
HAYS           CLOUDY    22  15  75 N14       30.40R WCI   9
GOODLAND       CLOUDY    15   7  70 N14       30.33R WCI   0
$$




USA.gov is the U.S. government's official web portal to all federal, state and local government web resources and services.